QFA438 RJTT-YSSY

Flight info

Callsign QFA438
Flight time N/A
Altitude 37000
Route VAMOS XAC B586 SABRI/N0469F360 B586 CADDY/N0468F370 B586 UKATA 25N141E 20N142E DCT RIDLL/N0469F390 A216 CS Y177 AKROM Y153 ROKUU H652 BOREE
Aircraft A333/H-SDE3GHIJ2J3J5M1RVWXY/LB2D1

Departure

Time 2026-05-06 09:10
Airport Tokyo Haneda International Airport (RJTT)

Arrival

Time N/A
Airport Sydney Kingsford Smith International Airport (YSSY)
Time Latitude Longitude Altitude Speed Heading
2026-05-06 08:27 35.54702 139.76928 34 ft 0 kts 240°
2026-05-06 08:54 35.54711 139.76946 34 ft 3 kts 240°
2026-05-06 08:54 35.54722 139.76971 33 ft 3 kts 240°
2026-05-06 08:54 35.54733 139.76994 34 ft 3 kts 248°
2026-05-06 08:55 35.54738 139.77020 32 ft 3 kts 279°
2026-05-06 08:55 35.54730 139.77045 31 ft 3 kts 310°
2026-05-06 08:55 35.54715 139.77062 31 ft 1 kts 330°
2026-05-06 08:55 35.54697 139.77074 32 ft 3 kts 330°
2026-05-06 08:56 35.54677 139.77089 33 ft 3 kts 330°
2026-05-06 08:56 35.54657 139.77103 32 ft 3 kts 330°
2026-05-06 08:56 35.54637 139.77117 32 ft 3 kts 330°
2026-05-06 08:56 35.54617 139.77131 31 ft 3 kts 330°
2026-05-06 08:57 35.54598 139.77145 33 ft 3 kts 330°
2026-05-06 08:57 35.54578 139.77159 33 ft 3 kts 330°
2026-05-06 08:57 35.54558 139.77174 33 ft 3 kts 330°
2026-05-06 08:57 35.54538 139.77188 32 ft 3 kts 330°
2026-05-06 08:58 35.54518 139.77202 31 ft 3 kts 330°
2026-05-06 08:58 35.54498 139.77216 33 ft 3 kts 330°
2026-05-06 08:58 35.54478 139.77230 31 ft 3 kts 330°
2026-05-06 08:58 35.54474 139.77233 31 ft 1 kts 330°
2026-05-06 09:01 35.54500 139.77220 34 ft 8 kts 343°
2026-05-06 09:01 35.54564 139.77256 34 ft 12 kts 51°
2026-05-06 09:02 35.54612 139.77349 34 ft 12 kts 60°
2026-05-06 09:02 35.54652 139.77434 34 ft 11 kts 59°
2026-05-06 09:02 35.54687 139.77506 33 ft 10 kts 59°
2026-05-06 09:02 35.54756 139.77532 33 ft 12 kts 338°
2026-05-06 09:03 35.54824 139.77485 33 ft 11 kts 330°
2026-05-06 09:03 35.54885 139.77441 32 ft 11 kts 330°
2026-05-06 09:03 35.54966 139.77384 33 ft 16 kts 330°
2026-05-06 09:03 35.55057 139.77319 33 ft 14 kts 330°
2026-05-06 09:04 35.55131 139.77266 33 ft 11 kts 330°
2026-05-06 09:04 35.55205 139.77214 33 ft 14 kts 330°
2026-05-06 09:04 35.55301 139.77147 33 ft 17 kts 330°
2026-05-06 09:04 35.55414 139.77067 33 ft 20 kts 330°
2026-05-06 09:05 35.55540 139.76978 33 ft 18 kts 330°
2026-05-06 09:05 35.55647 139.76882 33 ft 20 kts 311°
2026-05-06 09:05 35.55733 139.76732 32 ft 22 kts 304°
2026-05-06 09:05 35.55820 139.76576 33 ft 22 kts 305°
2026-05-06 09:06 35.55898 139.76438 34 ft 11 kts 304°
2026-05-06 09:06 35.55934 139.76374 34 ft 11 kts 304°
2026-05-06 09:06 35.55931 139.76258 34 ft 16 kts 221°
2026-05-06 09:06 35.55843 139.76180 34 ft 17 kts 214°
2026-05-06 09:07 35.55732 139.76140 34 ft 18 kts 149°
2026-05-06 09:07 35.55652 139.76267 34 ft 20 kts 125°
2026-05-06 09:07 35.55621 139.76411 33 ft 18 kts 57°
2026-05-06 09:07 35.55711 139.76531 33 ft 19 kts 47°
2026-05-06 09:08 35.55792 139.76635 33 ft 13 kts 39°
2026-05-06 09:08 35.55856 139.76693 33 ft 10 kts 34°
2026-05-06 09:08 35.55927 139.76752 33 ft 16 kts 34°
2026-05-06 09:08 35.56006 139.76837 33 ft 11 kts 67°
2026-05-06 09:09 35.55984 139.76914 33 ft 10 kts 137°
2026-05-06 09:09 35.55864 139.77007 33 ft 42 kts 148°
2026-05-06 09:09 35.55449 139.77296 27 ft 94 kts 150°
2026-05-06 09:09 35.54746 139.77796 26 ft 138 kts 149°
2026-05-06 09:10 35.53842 139.78423 358 ft 149 kts 153°
2026-05-06 09:10 35.52928 139.79005 858 ft 152 kts 154°
2026-05-06 09:10 35.52003 139.79658 1319 ft 153 kts 153°
2026-05-06 09:10 35.51054 139.80348 1527 ft 165 kts 153°
2026-05-06 09:11 35.50015 139.81103 1672 ft 182 kts 153°
2026-05-06 09:11 35.48874 139.81925 1836 ft 198 kts 152°
2026-05-06 09:11 35.47648 139.82804 2127 ft 209 kts 152°
2026-05-06 09:11 35.46369 139.83718 2573 ft 216 kts 153°
2026-05-06 09:12 35.45051 139.84654 3013 ft 220 kts 154°
2026-05-06 09:12 35.43647 139.85398 3471 ft 220 kts 168°
2026-05-06 09:12 35.42132 139.85500 3956 ft 219 kts 191°
2026-05-06 09:12 35.40661 139.85021 4508 ft 218 kts 200°
2026-05-06 09:13 35.39230 139.84399 5047 ft 218 kts 201°
2026-05-06 09:13 35.37802 139.83761 5567 ft 219 kts 201°
2026-05-06 09:13 35.36364 139.83122 6088 ft 220 kts 201°
2026-05-06 09:13 35.34919 139.82487 6617 ft 222 kts 201°
2026-05-06 09:14 35.33460 139.81850 7096 ft 224 kts 201°
2026-05-06 09:14 35.31982 139.81207 7563 ft 227 kts 201°
2026-05-06 09:14 35.30479 139.80555 8028 ft 231 kts 201°
2026-05-06 09:14 35.28948 139.79891 8490 ft 235 kts 201°
2026-05-06 09:15 35.27403 139.79223 9018 ft 235 kts 203°
2026-05-06 09:15 35.25855 139.78554 9540 ft 237 kts 204°
2026-05-06 09:15 35.24291 139.77878 10027 ft 240 kts 204°
2026-05-06 09:15 35.22709 139.77194 10451 ft 242 kts 204°
2026-05-06 09:16 35.21114 139.76496 10899 ft 243 kts 206°
2026-05-06 09:16 35.19577 139.75647 11356 ft 242 kts 211°
2026-05-06 09:16 35.18089 139.74674 11821 ft 243 kts 214°
2026-05-06 09:16 35.16654 139.73654 12283 ft 242 kts 215°
2026-05-06 09:17 35.15210 139.72594 12749 ft 242 kts 216°
2026-05-06 09:17 35.13764 139.71526 13178 ft 244 kts 216°
2026-05-06 09:17 35.12303 139.70454 13609 ft 246 kts 216°
2026-05-06 09:17 35.10825 139.69383 14030 ft 248 kts 215°
2026-05-06 09:18 35.09336 139.68314 14416 ft 249 kts 216°
2026-05-06 09:18 35.07839 139.67248 14780 ft 251 kts 216°
2026-05-06 09:18 35.06293 139.66145 14930 ft 265 kts 216°
2026-05-06 09:18 35.04658 139.64976 15081 ft 280 kts 216°
2026-05-06 09:19 35.02939 139.63749 15278 ft 293 kts 216°
2026-05-06 09:19 35.01144 139.62473 15501 ft 305 kts 215°
2026-05-06 09:19 34.99272 139.61147 15722 ft 317 kts 215°
2026-05-06 09:19 34.97333 139.59775 15936 ft 328 kts 215°
2026-05-06 09:20 34.95322 139.58355 16131 ft 340 kts 215°
2026-05-06 09:20 34.93254 139.56896 16412 ft 347 kts 215°
2026-05-06 09:20 34.91153 139.55417 16856 ft 350 kts 215°
2026-05-06 09:20 34.89045 139.53936 17360 ft 350 kts 215°
2026-05-06 09:21 34.86931 139.52451 17874 ft 351 kts 216°
2026-05-06 09:21 34.84820 139.50966 18421 ft 350 kts 216°
2026-05-06 09:21 34.82716 139.49486 18846 ft 350 kts 216°
2026-05-06 09:21 34.80606 139.48001 19247 ft 351 kts 216°
2026-05-06 09:22 34.78494 139.46513 19629 ft 352 kts 215°
2026-05-06 09:22 34.76368 139.45017 20021 ft 353 kts 215°
2026-05-06 09:22 34.74175 139.43626 20361 ft 359 kts 208°
2026-05-06 09:22 34.71805 139.42593 20723 ft 366 kts 200°
2026-05-06 09:23 34.69266 139.42066 21049 ft 376 kts 190°
2026-05-06 09:23 34.66620 139.42091 21426 ft 383 kts 184°
2026-05-06 09:23 34.63945 139.42380 21799 ft 388 kts 181°
2026-05-06 09:23 34.61263 139.42803 22152 ft 390 kts 179°
2026-05-06 09:24 34.58568 139.43284 22497 ft 392 kts 179°
2026-05-06 09:24 34.55865 139.43776 22821 ft 394 kts 179°
2026-05-06 09:24 34.53142 139.44261 23097 ft 397 kts 179°
2026-05-06 09:24 34.50389 139.44732 23378 ft 400 kts 179°
2026-05-06 09:25 34.47630 139.45191 23706 ft 401 kts 179°
2026-05-06 09:25 34.44858 139.45643 23985 ft 403 kts 179°
2026-05-06 09:25 34.42110 139.46084 24233 ft 405 kts 179°
2026-05-06 09:25 34.39310 139.46531 24484 ft 407 kts 180°
2026-05-06 09:26 34.36501 139.46979 24707 ft 409 kts 179°
2026-05-06 09:26 34.33656 139.47430 24820 ft 415 kts 179°
2026-05-06 09:26 34.30790 139.47886 25051 ft 417 kts 179°
2026-05-06 09:26 34.27909 139.48347 25327 ft 418 kts 179°
2026-05-06 09:27 34.25022 139.48810 25585 ft 419 kts 179°
2026-05-06 09:27 34.22121 139.49274 25842 ft 421 kts 179°
2026-05-06 09:27 34.19213 139.49739 26102 ft 423 kts 180°
2026-05-06 09:27 34.16285 139.50206 26294 ft 426 kts 179°
2026-05-06 09:28 34.13326 139.50676 26487 ft 429 kts 179°
2026-05-06 09:28 34.10359 139.51148 26721 ft 431 kts 179°
2026-05-06 09:28 34.07386 139.51622 26979 ft 432 kts 179°
2026-05-06 09:28 34.04399 139.52099 27228 ft 434 kts 179°
2026-05-06 09:29 34.01401 139.52576 27453 ft 435 kts 179°
2026-05-06 09:29 33.98388 139.53055 27617 ft 438 kts 179°
2026-05-06 09:29 33.95352 139.53535 27778 ft 442 kts 179°
2026-05-06 09:29 33.92300 139.54018 27996 ft 443 kts 179°
2026-05-06 09:30 33.90273 139.54339 28150 ft 444 kts 179°
2026-05-06 09:30 33.87205 139.54825 28360 ft 446 kts 179°
2026-05-06 09:30 33.83120 139.55471 28640 ft 448 kts 179°
2026-05-06 09:30 33.81030 139.55802 28756 ft 449 kts 179°
2026-05-06 09:31 33.77923 139.56292 28920 ft 452 kts 179°
2026-05-06 09:31 33.74799 139.56785 29100 ft 454 kts 179°
2026-05-06 09:31 33.71665 139.57279 29301 ft 455 kts 179°
2026-05-06 09:31 33.68548 139.57771 29499 ft 457 kts 179°
2026-05-06 09:32 33.65394 139.58268 29689 ft 458 kts 179°
2026-05-06 09:32 33.62231 139.58767 29878 ft 460 kts 179°
2026-05-06 09:32 33.59052 139.59267 30068 ft 461 kts 179°
2026-05-06 09:32 33.55863 139.59768 30240 ft 463 kts 179°
2026-05-06 09:33 33.52665 139.60270 30386 ft 464 kts 179°
2026-05-06 09:33 33.49508 139.60766 30559 ft 465 kts 179°
2026-05-06 09:33 33.46291 139.61271 30738 ft 465 kts 179°
2026-05-06 09:33 33.43083 139.61774 30902 ft 466 kts 179°
2026-05-06 09:34 33.39859 139.62279 31049 ft 467 kts 179°
2026-05-06 09:34 33.36643 139.62783 31248 ft 466 kts 179°
2026-05-06 09:34 33.33429 139.63287 31508 ft 465 kts 180°
2026-05-06 09:34 33.30224 139.63790 31768 ft 464 kts 180°
2026-05-06 09:35 33.27029 139.64290 32023 ft 462 kts 180°
2026-05-06 09:35 33.23843 139.64788 32253 ft 461 kts 180°
2026-05-06 09:35 33.20665 139.65283 32462 ft 461 kts 180°
2026-05-06 09:35 33.17479 139.65778 32636 ft 462 kts 180°
2026-05-06 09:36 33.14295 139.66273 32850 ft 461 kts 180°
2026-05-06 09:36 33.11116 139.66767 33072 ft 460 kts 180°
2026-05-06 09:36 33.07942 139.67261 33287 ft 460 kts 180°
2026-05-06 09:36 33.04774 139.67754 33514 ft 459 kts 180°
2026-05-06 09:37 33.01613 139.68245 33717 ft 458 kts 180°
2026-05-06 09:37 32.98457 139.68735 33953 ft 456 kts 180°
2026-05-06 09:37 32.95312 139.69223 34147 ft 456 kts 180°
2026-05-06 09:37 32.92164 139.69710 34313 ft 455 kts 180°
2026-05-06 09:38 32.89024 139.70196 34478 ft 455 kts 180°
2026-05-06 09:38 32.85895 139.70680 34649 ft 454 kts 180°
2026-05-06 09:38 32.82765 139.71164 34798 ft 453 kts 180°
2026-05-06 09:38 32.79643 139.71646 34974 ft 451 kts 180°
2026-05-06 09:39 32.76534 139.72126 35125 ft 451 kts 180°
2026-05-06 09:39 32.73418 139.72606 35269 ft 450 kts 180°
2026-05-06 09:39 32.70311 139.73082 35414 ft 450 kts 180°
2026-05-06 09:39 32.67249 139.73551 35558 ft 449 kts 180°
2026-05-06 09:40 32.64149 139.74026 35664 ft 450 kts 180°
2026-05-06 09:40 32.54803 139.75454 35901 ft 452 kts 180°
2026-05-06 09:41 32.51687 139.75931 36033 ft 452 kts 180°
2026-05-06 09:41 32.48571 139.76409 36167 ft 451 kts 180°
2026-05-06 09:41 32.42344 139.77359 36282 ft 453 kts 180°
2026-05-06 09:42 32.36091 139.78309 36503 ft 453 kts 180°
2026-05-06 09:42 32.32965 139.78785 36612 ft 452 kts 180°
2026-05-06 09:42 32.29846 139.79259 36720 ft 452 kts 180°
2026-05-06 09:43 32.23608 139.80207 36893 ft 452 kts 180°
2026-05-06 09:43 32.17366 139.81152 37065 ft 452 kts 180°
2026-05-06 09:44 32.11129 139.82096 37148 ft 451 kts 181°
2026-05-06 09:44 32.04928 139.83036 37140 ft 448 kts 181°
2026-05-06 09:45 31.98739 139.83970 37142 ft 448 kts 181°
2026-05-06 09:45 31.92563 139.84899 37144 ft 448 kts 181°
2026-05-06 09:46 31.86373 139.85829 37125 ft 448 kts 181°
2026-05-06 09:46 31.80204 139.86758 37143 ft 446 kts 181°
2026-05-06 09:47 31.74047 139.87683 37141 ft 446 kts 181°
2026-05-06 09:47 31.67928 139.88599 37143 ft 446 kts 181°
2026-05-06 09:48 31.61768 139.89521 37141 ft 446 kts 181°
2026-05-06 09:48 31.55613 139.90441 37140 ft 446 kts 181°
2026-05-06 09:49 31.49451 139.91361 37142 ft 446 kts 181°
2026-05-06 09:49 31.43296 139.92280 37143 ft 446 kts 181°
2026-05-06 09:50 31.37153 139.93195 37142 ft 445 kts 181°
2026-05-06 09:50 31.31011 139.94108 37144 ft 445 kts 181°
2026-05-06 09:51 31.24872 139.95020 37136 ft 445 kts 181°
2026-05-06 09:51 31.18733 139.95931 37141 ft 444 kts 181°
2026-05-06 09:52 31.12606 139.96838 37138 ft 444 kts 181°
2026-05-06 09:52 31.06472 139.97744 37136 ft 445 kts 181°
2026-05-06 09:53 31.00328 139.98781 37148 ft 451 kts 174°
2026-05-06 09:53 30.94237 140.00747 37149 ft 456 kts 171°
2026-05-06 09:54 30.88200 140.02927 37149 ft 457 kts 170°
2026-05-06 09:54 30.82130 140.05160 37146 ft 458 kts 170°
2026-05-06 09:55 30.76045 140.07378 37157 ft 458 kts 171°
2026-05-06 09:55 30.69957 140.09581 37144 ft 458 kts 171°
2026-05-06 09:56 30.63867 140.11777 37155 ft 458 kts 171°
2026-05-06 09:56 30.57774 140.13971 37155 ft 459 kts 171°
2026-05-06 09:57 30.51675 140.16164 37156 ft 459 kts 171°
2026-05-06 09:57 30.45584 140.18352 37148 ft 459 kts 170°
2026-05-06 09:58 30.39487 140.20540 37155 ft 459 kts 170°
2026-05-06 09:58 30.33426 140.22712 37155 ft 459 kts 170°
2026-05-06 09:59 30.27329 140.24894 37149 ft 459 kts 169°
2026-05-06 09:59 30.21209 140.27080 37154 ft 461 kts 169°
2026-05-06 10:00 30.15083 140.29267 37156 ft 461 kts 169°
2026-05-06 10:00 30.08955 140.31452 37143 ft 461 kts 169°
2026-05-06 10:01 30.02826 140.33634 37154 ft 462 kts 169°
2026-05-06 10:01 29.96603 140.35072 37156 ft 453 kts 178°
2026-05-06 10:02 29.90358 140.35998 37156 ft 452 kts 180°
2026-05-06 10:02 29.84101 140.36829 37157 ft 453 kts 180°
2026-05-06 10:03 29.77837 140.37660 37160 ft 453 kts 180°
2026-05-06 10:03 29.71570 140.38507 37160 ft 453 kts 180°
2026-05-06 10:04 29.65310 140.39360 37157 ft 453 kts 180°
2026-05-06 10:04 29.59044 140.40213 37153 ft 453 kts 180°
2026-05-06 10:05 29.52788 140.41063 37158 ft 453 kts 180°
2026-05-06 10:05 29.46525 140.41913 37151 ft 453 kts 180°
2026-05-06 10:06 29.40255 140.42762 37156 ft 454 kts 180°
2026-05-06 10:06 29.33975 140.43611 37156 ft 455 kts 180°
2026-05-06 10:07 29.27723 140.44457 37159 ft 455 kts 180°
2026-05-06 10:07 29.21436 140.45306 37159 ft 456 kts 180°
2026-05-06 10:08 29.15129 140.46155 37159 ft 457 kts 180°
2026-05-06 10:08 29.08813 140.47006 37163 ft 457 kts 180°
2026-05-06 10:09 29.02497 140.47856 37152 ft 457 kts 180°
2026-05-06 10:09 28.96155 140.48706 37159 ft 460 kts 180°
2026-05-06 10:10 28.89781 140.49560 37161 ft 461 kts 180°
2026-05-06 10:10 28.83408 140.50416 37156 ft 461 kts 180°
2026-05-06 10:11 28.77066 140.51265 37164 ft 463 kts 180°
2026-05-06 10:11 28.70661 140.52120 37160 ft 464 kts 180°
2026-05-06 10:12 28.64242 140.52977 37163 ft 464 kts 180°
2026-05-06 10:12 28.57828 140.53833 37161 ft 465 kts 180°
2026-05-06 10:13 28.51397 140.54689 37159 ft 466 kts 180°
2026-05-06 10:13 28.44954 140.55546 37159 ft 466 kts 180°
2026-05-06 10:14 28.38518 140.56402 37152 ft 466 kts 179°
2026-05-06 10:14 28.32061 140.57259 37159 ft 466 kts 179°
2026-05-06 10:15 28.25615 140.58113 37159 ft 467 kts 179°
2026-05-06 10:15 28.19158 140.58968 37159 ft 467 kts 179°
2026-05-06 10:16 28.12709 140.59820 37159 ft 466 kts 179°
2026-05-06 10:16 28.06263 140.60672 37159 ft 466 kts 179°
2026-05-06 10:17 28.00914 140.61377 37159 ft 466 kts 179°
2026-05-06 10:17 27.93426 140.62363 37156 ft 466 kts 179°
2026-05-06 10:18 27.86988 140.63210 37159 ft 466 kts 179°
2026-05-06 10:18 27.81596 140.63919 37159 ft 466 kts 179°
2026-05-06 10:19 27.75163 140.64763 37160 ft 466 kts 179°
2026-05-06 10:19 27.68719 140.65608 37160 ft 467 kts 179°
2026-05-06 10:20 27.62270 140.66452 37159 ft 467 kts 179°
2026-05-06 10:20 27.55843 140.67293 37154 ft 467 kts 179°
2026-05-06 10:21 27.49382 140.68137 37154 ft 467 kts 179°
2026-05-06 10:21 27.42919 140.68981 37154 ft 467 kts 179°
2026-05-06 10:22 27.36464 140.69822 37157 ft 467 kts 179°
2026-05-06 10:22 27.30002 140.70664 37157 ft 467 kts 179°
2026-05-06 10:23 27.23540 140.71504 37157 ft 468 kts 179°
2026-05-06 10:23 27.17065 140.72344 37154 ft 469 kts 179°
2026-05-06 10:24 27.10586 140.73185 37154 ft 469 kts 179°
2026-05-06 10:24 27.04150 140.74019 37150 ft 469 kts 179°
2026-05-06 10:25 26.97659 140.74859 37157 ft 470 kts 179°
2026-05-06 10:25 26.91163 140.75699 37148 ft 470 kts 179°
2026-05-06 10:26 26.84664 140.76538 37151 ft 470 kts 179°
2026-05-06 10:26 26.78166 140.77377 37152 ft 470 kts 179°
2026-05-06 10:27 26.71663 140.78215 37148 ft 470 kts 179°
2026-05-06 10:27 26.65167 140.79051 37149 ft 470 kts 179°
2026-05-06 10:28 26.58667 140.79886 37152 ft 470 kts 178°
2026-05-06 10:28 26.52171 140.80720 37152 ft 470 kts 178°
2026-05-06 10:29 26.45675 140.81553 37140 ft 469 kts 178°
2026-05-06 10:29 26.39228 140.82379 37153 ft 469 kts 178°
2026-05-06 10:30 26.32740 140.83209 37147 ft 470 kts 178°
2026-05-06 10:30 26.26241 140.84040 37151 ft 470 kts 178°
2026-05-06 10:31 26.19749 140.84869 37139 ft 470 kts 178°
2026-05-06 10:31 26.13252 140.85697 37132 ft 470 kts 178°
2026-05-06 10:32 26.07215 140.86466 37145 ft 470 kts 178°
2026-05-06 10:32 26.00717 140.87293 37147 ft 470 kts 178°
2026-05-06 10:33 25.94219 140.88119 37140 ft 470 kts 178°
2026-05-06 10:33 25.87712 140.88945 37143 ft 471 kts 177°
2026-05-06 10:34 25.81198 140.89771 37137 ft 471 kts 177°
2026-05-06 10:34 25.74681 140.90597 37137 ft 471 kts 177°
2026-05-06 10:35 25.68164 140.91422 37134 ft 471 kts 177°
2026-05-06 10:35 25.61635 140.92247 37137 ft 472 kts 177°
2026-05-06 10:36 25.55110 140.93071 37133 ft 472 kts 177°
2026-05-06 10:36 25.48581 140.93894 37137 ft 472 kts 177°
2026-05-06 10:37 25.42049 140.94717 37136 ft 472 kts 177°
2026-05-06 10:37 25.35516 140.95539 37134 ft 473 kts 177°
2026-05-06 10:38 25.28983 140.96361 37132 ft 473 kts 177°
2026-05-06 10:38 25.22436 140.97183 37133 ft 473 kts 177°
2026-05-06 10:39 25.15944 140.97997 37130 ft 473 kts 177°
2026-05-06 10:39 25.09409 140.98817 37129 ft 473 kts 177°
2026-05-06 10:40 25.02870 140.99635 37129 ft 473 kts 177°
2026-05-06 10:40 24.96351 141.00634 37128 ft 474 kts 173°
2026-05-06 10:41 24.89846 141.01999 37132 ft 476 kts 172°
2026-05-06 10:41 24.83351 141.03414 37131 ft 476 kts 172°
2026-05-06 10:42 24.76854 141.04792 37119 ft 476 kts 172°
2026-05-06 10:42 24.70344 141.06144 37124 ft 476 kts 172°
2026-05-06 10:43 24.63876 141.07479 37127 ft 476 kts 172°
2026-05-06 10:44 24.54111 141.09491 37125 ft 476 kts 172°
2026-05-06 10:44 24.47594 141.10834 37127 ft 476 kts 172°
2026-05-06 10:45 24.41085 141.12174 37123 ft 476 kts 172°
2026-05-06 10:45 24.34569 141.13515 37122 ft 476 kts 172°
2026-05-06 10:46 24.28057 141.14852 37121 ft 476 kts 172°
2026-05-06 10:46 24.21547 141.16189 37122 ft 476 kts 172°
2026-05-06 10:47 24.15032 141.17524 37120 ft 476 kts 172°
2026-05-06 10:47 24.08519 141.18858 37122 ft 476 kts 172°
2026-05-06 10:48 24.02006 141.20191 37121 ft 476 kts 172°
2026-05-06 10:48 23.95496 141.21521 37119 ft 476 kts 172°
2026-05-06 10:49 23.88983 141.22851 37121 ft 476 kts 172°
2026-05-06 10:49 23.82473 141.24179 37116 ft 476 kts 172°
2026-05-06 10:50 23.75958 141.25507 37117 ft 476 kts 172°
2026-05-06 10:50 23.69452 141.26831 37118 ft 476 kts 172°
2026-05-06 10:51 23.62940 141.28155 37124 ft 476 kts 172°
2026-05-06 10:51 23.56431 141.29477 37112 ft 476 kts 172°
2026-05-06 10:52 23.49924 141.30798 37116 ft 476 kts 172°
2026-05-06 10:52 23.43461 141.32108 37126 ft 475 kts 172°
2026-05-06 10:53 23.36915 141.33434 37109 ft 476 kts 172°
2026-05-06 10:53 23.30410 141.34750 37116 ft 475 kts 172°
2026-05-06 10:54 23.23905 141.36065 37118 ft 475 kts 172°
2026-05-06 10:54 23.17409 141.37377 37120 ft 475 kts 172°
2026-05-06 10:55 23.10946 141.38680 37113 ft 475 kts 172°
2026-05-06 10:55 23.04442 141.39991 37119 ft 475 kts 172°
2026-05-06 10:56 22.97942 141.41300 37107 ft 475 kts 172°
2026-05-06 10:56 22.91443 141.42607 37108 ft 475 kts 172°
2026-05-06 10:57 22.84941 141.43913 37111 ft 475 kts 172°
2026-05-06 10:57 22.78433 141.45220 37111 ft 475 kts 172°
2026-05-06 10:58 22.71935 141.46523 37108 ft 475 kts 172°
2026-05-06 10:58 22.65428 141.47827 37109 ft 475 kts 172°
2026-05-06 10:59 22.58969 141.49120 37106 ft 475 kts 171°
2026-05-06 10:59 22.52464 141.50421 37101 ft 475 kts 171°
2026-05-06 11:00 22.45967 141.51719 37106 ft 475 kts 171°
2026-05-06 11:00 22.39463 141.53017 37099 ft 475 kts 171°
2026-05-06 11:01 22.32958 141.54314 37100 ft 475 kts 171°
2026-05-06 11:01 22.26453 141.55610 37099 ft 475 kts 171°
2026-05-06 11:02 22.19948 141.56904 37100 ft 475 kts 171°
2026-05-06 11:02 22.13439 141.58199 37101 ft 475 kts 171°
2026-05-06 11:03 22.06936 141.59490 37097 ft 475 kts 171°
2026-05-06 11:03 22.00422 141.60783 37098 ft 475 kts 171°
2026-05-06 11:04 21.93918 141.62073 37095 ft 475 kts 171°
2026-05-06 11:04 21.87454 141.63353 37098 ft 476 kts 171°
2026-05-06 11:05 21.80934 141.64643 37095 ft 476 kts 171°
2026-05-06 11:05 21.74413 141.65933 37088 ft 476 kts 172°
2026-05-06 11:06 21.67891 141.67221 37091 ft 476 kts 171°
2026-05-06 11:06 21.62473 141.68291 37089 ft 476 kts 171°
2026-05-06 11:07 21.55953 141.69577 37088 ft 476 kts 171°
2026-05-06 11:07 21.49427 141.70862 37088 ft 477 kts 172°
2026-05-06 11:08 21.42889 141.72149 37080 ft 477 kts 171°
2026-05-06 11:08 21.36355 141.73435 37084 ft 477 kts 171°
2026-05-06 11:09 21.29817 141.74720 37083 ft 477 kts 171°
2026-05-06 11:09 21.23289 141.76001 37081 ft 477 kts 171°
2026-05-06 11:10 21.16747 141.77284 37076 ft 478 kts 172°
2026-05-06 11:10 21.10192 141.78568 37077 ft 478 kts 172°
2026-05-06 11:11 21.03646 141.79850 37079 ft 478 kts 171°
2026-05-06 11:11 20.97108 141.81129 37078 ft 477 kts 172°
2026-05-06 11:12 20.90581 141.82405 37072 ft 476 kts 171°
2026-05-06 11:12 20.84054 141.83679 37076 ft 477 kts 171°
2026-05-06 11:13 20.77535 141.84951 37072 ft 476 kts 171°
2026-05-06 11:13 20.71067 141.86212 37073 ft 475 kts 171°
2026-05-06 11:14 20.64559 141.87479 37070 ft 476 kts 171°
2026-05-06 11:14 20.58032 141.88749 37070 ft 477 kts 172°
2026-05-06 11:15 20.51486 141.90021 37070 ft 478 kts 171°
2026-05-06 11:15 20.44945 141.91292 37070 ft 478 kts 171°
2026-05-06 11:16 20.38414 141.92561 37064 ft 477 kts 171°
2026-05-06 11:16 20.31889 141.93826 37068 ft 477 kts 171°
2026-05-06 11:17 20.25398 141.95083 37068 ft 477 kts 172°
2026-05-06 11:17 20.18805 141.96359 37072 ft 479 kts 171°
2026-05-06 11:18 20.12305 141.97617 37064 ft 478 kts 171°
2026-05-06 11:18 20.05754 141.98883 37057 ft 478 kts 171°
2026-05-06 11:19 19.99210 142.00111 37064 ft 477 kts 173°
2026-05-06 11:19 19.92611 142.00928 37056 ft 477 kts 176°
2026-05-06 11:20 19.85991 142.01574 37059 ft 477 kts 176°
2026-05-06 11:20 19.79366 142.02238 37063 ft 479 kts 176°
2026-05-06 11:21 19.72737 142.02942 37058 ft 477 kts 176°
2026-05-06 11:21 19.66352 142.03633 37056 ft 477 kts 176°
2026-05-06 11:22 19.59745 142.04350 37055 ft 477 kts 175°
2026-05-06 11:22 19.53152 142.05062 37052 ft 475 kts 175°
2026-05-06 11:23 19.46583 142.05769 37056 ft 475 kts 175°
2026-05-06 11:23 19.40007 142.06478 37050 ft 475 kts 175°
2026-05-06 11:24 19.33431 142.07185 37052 ft 476 kts 175°
2026-05-06 11:24 19.26832 142.07894 37051 ft 477 kts 175°
2026-05-06 11:25 19.20235 142.08604 37049 ft 476 kts 175°
2026-05-06 11:25 19.13823 142.09292 37048 ft 475 kts 175°
2026-05-06 11:26 19.07270 142.09995 37044 ft 477 kts 175°
2026-05-06 11:26 19.00667 142.10703 37045 ft 476 kts 175°
2026-05-06 11:27 18.94076 142.11409 37044 ft 475 kts 175°
2026-05-06 11:27 18.87479 142.12114 37041 ft 478 kts 175°
2026-05-06 11:28 18.80859 142.12822 37041 ft 478 kts 175°
2026-05-06 11:28 18.74240 142.13529 37042 ft 479 kts 175°
2026-05-06 11:29 18.67590 142.14239 37040 ft 481 kts 175°
2026-05-06 11:29 18.60927 142.14950 37037 ft 480 kts 175°
2026-05-06 11:30 18.54281 142.15659 37034 ft 479 kts 175°
2026-05-06 11:30 18.47642 142.16366 37035 ft 480 kts 175°
2026-05-06 11:31 18.40978 142.17075 37035 ft 481 kts 175°
2026-05-06 11:31 18.34349 142.17781 37031 ft 478 kts 175°
2026-05-06 11:32 18.27702 142.18486 37032 ft 481 kts 175°
2026-05-06 11:32 18.21048 142.19193 37026 ft 480 kts 175°
2026-05-06 11:33 18.14375 142.19900 37029 ft 483 kts 175°
2026-05-06 11:33 18.07743 142.20604 37022 ft 480 kts 175°
2026-05-06 11:34 18.01037 142.21314 37029 ft 483 kts 175°
2026-05-06 11:34 17.94336 142.22023 37026 ft 485 kts 175°
2026-05-06 11:35 17.87654 142.22730 37026 ft 486 kts 175°
2026-05-06 11:35 17.80919 142.23443 37022 ft 485 kts 175°
2026-05-06 11:36 17.74227 142.24150 37020 ft 482 kts 175°
2026-05-06 11:36 17.67557 142.24853 37019 ft 482 kts 175°
2026-05-06 11:37 17.60862 142.25559 37017 ft 484 kts 175°
2026-05-06 11:37 17.54163 142.26265 37016 ft 483 kts 175°
2026-05-06 11:38 17.47505 142.26967 37018 ft 480 kts 175°
2026-05-06 11:38 17.40860 142.27666 37017 ft 480 kts 175°
2026-05-06 11:39 17.34199 142.28365 37016 ft 482 kts 175°
2026-05-06 11:39 17.27514 142.29068 37012 ft 482 kts 175°
2026-05-06 11:40 17.20855 142.29767 37014 ft 485 kts 175°
2026-05-06 11:40 17.14136 142.30473 37013 ft 484 kts 175°
2026-05-06 11:41 17.07463 142.31173 37013 ft 481 kts 175°
2026-05-06 11:41 17.00800 142.31869 37005 ft 483 kts 175°
2026-05-06 11:42 16.94075 142.32572 37011 ft 488 kts 175°
2026-05-06 11:42 16.87310 142.33282 37007 ft 487 kts 175°
2026-05-06 11:43 16.80604 142.33984 37008 ft 483 kts 175°
2026-05-06 11:43 16.73900 142.34682 37006 ft 486 kts 175°
2026-05-06 11:44 16.63757 142.35740 37005 ft 490 kts 175°
2026-05-06 11:44 16.56993 142.36449 37000 ft 485 kts 175°
2026-05-06 11:45 16.50302 142.37145 37003 ft 483 kts 175°
2026-05-06 11:45 16.43613 142.37841 36998 ft 483 kts 176°
2026-05-06 11:46 16.36887 142.38538 37005 ft 488 kts 175°
2026-05-06 11:46 16.30109 142.39243 36998 ft 491 kts 176°
2026-05-06 11:47 16.23294 142.39953 36998 ft 492 kts 175°
2026-05-06 11:47 16.16569 142.40657 36995 ft 486 kts 175°
2026-05-06 11:48 16.09865 142.41348 36992 ft 484 kts 176°
2026-05-06 11:48 16.03122 142.41972 36991 ft 486 kts 177°
2026-05-06 11:49 15.96384 142.42434 36993 ft 485 kts 178°
2026-05-06 11:49 15.89656 142.42871 36990 ft 484 kts 178°
2026-05-06 11:50 15.82927 142.43331 36990 ft 485 kts 178°
2026-05-06 11:50 15.76171 142.43801 36988 ft 487 kts 178°
2026-05-06 11:51 15.70553 142.44184 36988 ft 487 kts 178°
2026-05-06 11:51 15.63805 142.44641 36982 ft 484 kts 178°
2026-05-06 11:52 15.57093 142.45109 36987 ft 482 kts 178°
2026-05-06 11:52 15.50392 142.45576 36987 ft 482 kts 178°
2026-05-06 11:53 15.43693 142.46047 36986 ft 484 kts 179°
2026-05-06 11:53 15.36955 142.46512 36972 ft 486 kts 179°
2026-05-06 11:54 15.30208 142.46973 36985 ft 486 kts 179°
2026-05-06 11:54 15.23469 142.47436 36979 ft 485 kts 179°
2026-05-06 11:55 15.16723 142.47902 36980 ft 486 kts 179°
2026-05-06 11:55 15.10035 142.48360 36979 ft 484 kts 178°
2026-05-06 11:56 15.03322 142.48825 36976 ft 484 kts 178°
2026-05-06 11:56 14.96598 142.49287 36976 ft 484 kts 178°
2026-05-06 11:57 14.89885 142.49752 36973 ft 484 kts 179°
2026-05-06 11:57 14.83148 142.50215 36975 ft 486 kts 179°
2026-05-06 11:58 14.76385 142.50678 36973 ft 485 kts 179°
2026-05-06 11:58 14.69658 142.51139 36974 ft 484 kts 179°
2026-05-06 11:59 14.62944 142.51600 36974 ft 483 kts 179°
2026-05-06 11:59 14.56236 142.52061 36971 ft 483 kts 179°
2026-05-06 12:00 14.49520 142.52521 36972 ft 484 kts 179°
2026-05-06 12:00 14.42813 142.52979 36969 ft 482 kts 179°
2026-05-06 12:01 14.36176 142.53433 36966 ft 480 kts 179°
2026-05-06 12:01 14.29511 142.53890 36967 ft 480 kts 179°
2026-05-06 12:02 14.22843 142.54347 36960 ft 480 kts 179°
2026-05-06 12:02 14.16170 142.54803 36964 ft 480 kts 179°
2026-05-06 12:03 14.09500 142.55257 36963 ft 480 kts 179°
2026-05-06 12:03 14.02829 142.55713 36962 ft 480 kts 179°
2026-05-06 12:04 13.96168 142.56167 36951 ft 479 kts 179°
2026-05-06 12:04 13.89515 142.56621 36954 ft 479 kts 179°
2026-05-06 12:05 13.82909 142.57071 36952 ft 479 kts 179°
2026-05-06 12:05 13.76245 142.57525 36954 ft 480 kts 179°
2026-05-06 12:06 13.69581 142.57979 36952 ft 480 kts 179°
2026-05-06 12:06 13.62907 142.58432 36954 ft 480 kts 179°
2026-05-06 12:07 13.56248 142.58885 36947 ft 479 kts 179°
2026-05-06 12:07 13.49592 142.59338 36949 ft 480 kts 179°
2026-05-06 12:08 13.42929 142.59790 36954 ft 480 kts 179°
2026-05-06 12:08 13.36263 142.60242 36938 ft 480 kts 179°
2026-05-06 12:09 13.29609 142.60693 36939 ft 479 kts 179°
2026-05-06 12:09 13.22957 142.61144 36949 ft 479 kts 179°
2026-05-06 12:10 13.16308 142.61595 36935 ft 479 kts 179°
2026-05-06 12:10 13.09653 142.62045 36941 ft 479 kts 178°
2026-05-06 12:11 13.03002 142.62497 36930 ft 479 kts 179°
2026-05-06 12:11 12.96398 142.62942 36940 ft 479 kts 179°
2026-05-06 12:12 12.89753 142.63392 36937 ft 478 kts 179°
2026-05-06 12:12 12.83105 142.63842 36929 ft 479 kts 179°
2026-05-06 12:13 12.76449 142.64289 36930 ft 478 kts 178°
2026-05-06 12:13 12.69801 142.64739 36931 ft 479 kts 179°
2026-05-06 12:14 12.63142 142.65189 36927 ft 480 kts 179°
2026-05-06 12:14 12.56462 142.65639 36927 ft 481 kts 179°
2026-05-06 12:15 12.49796 142.66086 36929 ft 479 kts 178°
2026-05-06 12:15 12.43163 142.66536 36923 ft 478 kts 179°
2026-05-06 12:16 12.36551 142.66980 36927 ft 479 kts 178°
2026-05-06 12:16 12.29921 142.67425 36923 ft 477 kts 178°
2026-05-06 12:17 12.23305 142.67873 36923 ft 477 kts 178°
2026-05-06 12:17 12.16678 142.68319 36919 ft 478 kts 178°
2026-05-06 12:18 12.10035 142.68762 36919 ft 478 kts 178°
2026-05-06 12:18 12.03396 142.69209 36921 ft 478 kts 178°
2026-05-06 12:19 11.96745 142.69655 36916 ft 479 kts 178°
2026-05-06 12:19 11.90091 142.70101 36918 ft 479 kts 178°
2026-05-06 12:20 11.83454 142.70546 36912 ft 477 kts 178°
2026-05-06 12:20 11.76818 142.70991 36914 ft 478 kts 178°
2026-05-06 12:21 11.70188 142.71434 36912 ft 477 kts 178°
2026-05-06 12:21 11.63574 142.71878 36909 ft 476 kts 178°
2026-05-06 12:22 11.56948 142.72322 36908 ft 478 kts 178°
2026-05-06 12:22 11.50311 142.72765 36904 ft 477 kts 178°
2026-05-06 12:23 11.43674 142.73210 36905 ft 479 kts 178°
2026-05-06 12:23 11.37028 142.73653 36905 ft 478 kts 177°
2026-05-06 12:24 11.30437 142.74093 36902 ft 477 kts 177°
2026-05-06 12:24 11.23809 142.74536 36905 ft 477 kts 177°
2026-05-06 12:25 11.17195 142.74978 36903 ft 477 kts 177°
2026-05-06 12:25 11.10576 142.75419 36904 ft 476 kts 177°
2026-05-06 12:26 11.03962 142.75860 36901 ft 476 kts 176°
2026-05-06 12:26 10.97385 142.76298 36900 ft 476 kts 177°
2026-05-06 12:27 10.90712 142.76743 36897 ft 477 kts 177°
2026-05-06 12:27 10.84095 142.77183 36898 ft 475 kts 176°
2026-05-06 12:28 10.77496 142.77622 36896 ft 475 kts 176°
2026-05-06 12:28 10.70940 142.78058 36894 ft 474 kts 176°
2026-05-06 12:29 10.64358 142.78496 36894 ft 474 kts 176°
2026-05-06 12:29 10.57762 142.78935 36892 ft 475 kts 176°
2026-05-06 12:30 10.51164 142.79373 36893 ft 475 kts 176°
2026-05-06 12:30 10.44564 142.79811 36893 ft 475 kts 176°
2026-05-06 12:31 10.37970 142.80249 36889 ft 475 kts 176°
2026-05-06 12:31 10.31373 142.80687 36886 ft 475 kts 176°
2026-05-06 12:32 10.24790 142.81123 36886 ft 474 kts 176°
2026-05-06 12:32 10.18211 142.81559 36888 ft 474 kts 175°
2026-05-06 12:33 10.11627 142.81996 36881 ft 474 kts 175°
2026-05-06 12:33 10.05036 142.82433 36882 ft 475 kts 175°
2026-05-06 12:34 9.98452 142.82869 36880 ft 474 kts 175°
2026-05-06 12:34 9.91914 142.83352 36880 ft 474 kts 172°
2026-05-06 12:35 9.85393 142.84297 36881 ft 473 kts 171°
2026-05-06 12:35 9.78893 142.85339 36881 ft 473 kts 170°
2026-05-06 12:36 9.72393 142.86400 36877 ft 473 kts 170°
2026-05-06 12:36 9.65891 142.87457 36876 ft 473 kts 170°
2026-05-06 12:37 9.59380 142.88507 36876 ft 474 kts 170°
2026-05-06 12:37 9.52851 142.89558 36876 ft 475 kts 170°
2026-05-06 12:38 9.46324 142.90610 36875 ft 474 kts 170°
2026-05-06 12:38 9.40912 142.91480 36870 ft 474 kts 170°
2026-05-06 12:39 9.34397 142.92528 36871 ft 474 kts 170°
2026-05-06 12:39 9.27886 142.93575 36870 ft 473 kts 170°
2026-05-06 12:40 9.21376 142.94621 36872 ft 474 kts 170°
2026-05-06 12:40 9.14857 142.95669 36873 ft 474 kts 170°
2026-05-06 12:41 9.08337 142.96716 36873 ft 474 kts 170°
2026-05-06 12:41 9.01822 142.97763 36866 ft 474 kts 170°
2026-05-06 12:42 8.95339 142.98804 36867 ft 475 kts 170°
2026-05-06 12:42 8.88818 142.99850 36868 ft 474 kts 170°
2026-05-06 12:43 8.82302 143.00895 36863 ft 474 kts 170°
2026-05-06 12:43 8.75783 143.01941 36866 ft 474 kts 170°
2026-05-06 12:44 8.69267 143.02984 36864 ft 475 kts 170°
2026-05-06 12:44 8.62732 143.04032 36864 ft 475 kts 170°
2026-05-06 12:45 8.56200 143.05078 36862 ft 476 kts 170°
2026-05-06 12:46 8.46396 143.06648 36858 ft 475 kts 170°
2026-05-06 12:46 8.39850 143.07696 36858 ft 477 kts 170°
2026-05-06 12:47 8.33302 143.08743 36855 ft 476 kts 170°
2026-05-06 12:47 8.26759 143.09789 36854 ft 475 kts 170°
2026-05-06 12:48 8.20255 143.10829 36859 ft 477 kts 170°
2026-05-06 12:48 8.13706 143.11876 36857 ft 478 kts 171°
2026-05-06 12:49 8.07119 143.12928 36849 ft 480 kts 171°
2026-05-06 12:49 8.00528 143.13981 36849 ft 478 kts 171°
2026-05-06 12:50 7.93953 143.15031 36853 ft 478 kts 171°
2026-05-06 12:50 7.87394 143.16078 36848 ft 477 kts 171°
2026-05-06 12:51 7.80857 143.17121 36846 ft 475 kts 171°
2026-05-06 12:51 7.74328 143.18162 36845 ft 475 kts 171°
2026-05-06 12:52 7.67801 143.19203 36847 ft 475 kts 171°
2026-05-06 12:52 7.61268 143.20244 36842 ft 475 kts 171°
2026-05-06 12:53 7.54743 143.21284 36843 ft 474 kts 171°
2026-05-06 12:53 7.48225 143.22323 36843 ft 473 kts 171°
2026-05-06 12:54 7.41721 143.23358 36843 ft 474 kts 171°
2026-05-06 12:54 7.35206 143.24396 36842 ft 474 kts 171°
2026-05-06 12:55 7.28727 143.25427 36838 ft 474 kts 171°
2026-05-06 12:55 7.22194 143.26466 36838 ft 477 kts 171°
2026-05-06 12:56 7.15629 143.27511 36841 ft 478 kts 171°
2026-05-06 12:56 7.09073 143.28554 36839 ft 477 kts 171°
2026-05-06 12:57 7.02507 143.29598 36838 ft 478 kts 171°
2026-05-06 12:57 6.95933 143.30642 36841 ft 479 kts 171°
2026-05-06 12:58 6.89359 143.31687 36840 ft 478 kts 171°
2026-05-06 12:58 6.82797 143.32729 36840 ft 477 kts 171°
2026-05-06 12:59 6.76246 143.33770 36839 ft 476 kts 171°
2026-05-06 12:59 6.69687 143.34811 36840 ft 477 kts 171°
2026-05-06 13:00 6.63138 143.35851 36837 ft 476 kts 171°
2026-05-06 13:00 6.56596 143.36889 36842 ft 476 kts 171°
2026-05-06 13:01 6.50056 143.37926 36843 ft 475 kts 171°
2026-05-06 13:01 6.43536 143.38960 36839 ft 474 kts 171°
2026-05-06 13:02 6.37005 143.39995 36840 ft 475 kts 171°
2026-05-06 13:02 6.30468 143.41032 36844 ft 476 kts 171°
2026-05-06 13:03 6.23977 143.42060 36839 ft 475 kts 171°
2026-05-06 13:03 6.17450 143.43094 36843 ft 475 kts 171°
2026-05-06 13:04 6.10922 143.44128 36841 ft 474 kts 171°
2026-05-06 13:04 6.04388 143.45163 36841 ft 476 kts 171°
2026-05-06 13:05 5.97820 143.46203 36840 ft 478 kts 171°
2026-05-06 13:05 5.91250 143.47243 36838 ft 477 kts 171°
2026-05-06 13:06 5.84699 143.48279 36841 ft 477 kts 171°
2026-05-06 13:06 5.81422 143.48798 36949 ft 477 kts 171°
2026-05-06 13:06 5.78142 143.49317 37031 ft 477 kts 171°
2026-05-06 13:06 5.74861 143.49835 37212 ft 476 kts 171°
2026-05-06 13:07 5.71585 143.50354 37261 ft 479 kts 171°
2026-05-06 13:07 5.64981 143.51398 37453 ft 479 kts 171°
2026-05-06 13:07 5.61691 143.51918 37627 ft 478 kts 171°
2026-05-06 13:08 5.58402 143.52438 37811 ft 477 kts 171°
2026-05-06 13:08 5.55136 143.52954 38025 ft 475 kts 171°
2026-05-06 13:08 5.51871 143.53470 38081 ft 476 kts 171°
2026-05-06 13:09 5.45321 143.54505 38285 ft 476 kts 171°
2026-05-06 13:09 5.38807 143.55534 38465 ft 477 kts 171°
2026-05-06 13:09 5.35535 143.56051 38633 ft 475 kts 171°
2026-05-06 13:10 5.32272 143.56567 38713 ft 475 kts 171°
2026-05-06 13:10 5.29010 143.57082 38820 ft 474 kts 171°
2026-05-06 13:10 5.25747 143.57598 38844 ft 475 kts 171°
2026-05-06 13:11 5.19213 143.58629 38849 ft 476 kts 171°
2026-05-06 13:11 5.12662 143.59663 38853 ft 477 kts 171°
2026-05-06 13:12 5.06108 143.60698 38846 ft 476 kts 171°
2026-05-06 13:12 4.99565 143.61707 38848 ft 475 kts 173°
2026-05-06 13:13 4.92980 143.62331 38851 ft 476 kts 175°
2026-05-06 13:13 4.86371 143.62775 38852 ft 476 kts 175°
2026-05-06 13:14 4.79783 143.63231 38850 ft 473 kts 175°
2026-05-06 13:14 4.73228 143.63720 38851 ft 472 kts 175°
2026-05-06 13:15 4.66668 143.64225 38852 ft 473 kts 175°
2026-05-06 13:15 4.60106 143.64733 38852 ft 473 kts 175°
2026-05-06 13:16 4.53563 143.65238 38851 ft 470 kts 175°
2026-05-06 13:16 4.47052 143.65739 38849 ft 469 kts 175°
2026-05-06 13:17 4.40550 143.66239 38852 ft 469 kts 175°
2026-05-06 13:17 4.34088 143.66736 38850 ft 469 kts 174°
2026-05-06 13:18 4.27584 143.67236 38858 ft 468 kts 174°
2026-05-06 13:18 4.21099 143.67735 38858 ft 466 kts 174°
2026-05-06 13:19 4.14630 143.68232 38854 ft 466 kts 174°
2026-05-06 13:19 4.08154 143.68730 38855 ft 466 kts 174°
2026-05-06 13:20 4.01689 143.69227 38860 ft 466 kts 174°
2026-05-06 13:20 3.95217 143.69724 38859 ft 466 kts 174°
2026-05-06 13:21 3.88764 143.70220 38856 ft 465 kts 174°
2026-05-06 13:21 3.82316 143.70715 38856 ft 465 kts 174°
2026-05-06 13:22 3.75869 143.71211 38862 ft 465 kts 174°
2026-05-06 13:22 3.69416 143.71706 38860 ft 465 kts 174°
2026-05-06 13:23 3.62965 143.72202 38861 ft 465 kts 174°
2026-05-06 13:23 3.56503 143.72698 38862 ft 466 kts 174°
2026-05-06 13:24 3.50087 143.73190 38864 ft 466 kts 174°
2026-05-06 13:24 3.43625 143.73686 38861 ft 466 kts 174°
2026-05-06 13:25 3.37166 143.74182 38864 ft 466 kts 174°
2026-05-06 13:25 3.30701 143.74678 38867 ft 465 kts 174°
2026-05-06 13:26 3.24245 143.75173 38863 ft 465 kts 174°
2026-05-06 13:26 3.17784 143.75669 38861 ft 465 kts 174°
2026-05-06 13:27 3.11329 143.76164 38859 ft 465 kts 174°
2026-05-06 13:27 3.05962 143.76576 38858 ft 465 kts 174°
2026-05-06 13:28 2.99522 143.77069 38861 ft 464 kts 174°
2026-05-06 13:28 2.93081 143.77563 38863 ft 464 kts 174°
2026-05-06 13:29 2.86647 143.78057 38861 ft 464 kts 174°
2026-05-06 13:29 2.80212 143.78550 38865 ft 464 kts 174°
2026-05-06 13:30 2.73774 143.79044 38865 ft 464 kts 174°
2026-05-06 13:30 2.67339 143.79537 38868 ft 464 kts 174°
2026-05-06 13:31 2.60902 143.80030 38866 ft 464 kts 174°
2026-05-06 13:31 2.54467 143.80523 38869 ft 464 kts 174°
2026-05-06 13:32 2.48024 143.81017 38868 ft 464 kts 174°
2026-05-06 13:32 2.41584 143.81510 38867 ft 464 kts 174°
2026-05-06 13:33 2.35139 143.82004 38868 ft 465 kts 174°
2026-05-06 13:33 2.28730 143.82495 38868 ft 465 kts 174°
2026-05-06 13:34 2.22277 143.82989 38865 ft 465 kts 174°
2026-05-06 13:34 2.15833 143.83483 38866 ft 465 kts 174°
2026-05-06 13:35 2.09373 143.83978 38864 ft 467 kts 174°
2026-05-06 13:35 2.02877 143.84475 38866 ft 469 kts 174°
2026-05-06 13:36 1.96371 143.84973 38867 ft 469 kts 174°
2026-05-06 13:36 1.89872 143.85470 38864 ft 468 kts 174°
2026-05-06 13:37 1.83373 143.85968 38868 ft 468 kts 174°
2026-05-06 13:37 1.76887 143.86464 38866 ft 467 kts 174°
2026-05-06 13:38 1.70400 143.86961 38870 ft 467 kts 174°
2026-05-06 13:38 1.63920 143.87457 38872 ft 467 kts 174°
2026-05-06 13:39 1.57443 143.87953 38867 ft 467 kts 174°
2026-05-06 13:39 1.50966 143.88448 38868 ft 467 kts 175°
2026-05-06 13:40 1.44518 143.88942 38867 ft 468 kts 175°
2026-05-06 13:40 1.38026 143.89439 38871 ft 467 kts 174°
2026-05-06 13:41 1.31542 143.89935 38870 ft 467 kts 175°
2026-05-06 13:41 1.25055 143.90431 38872 ft 467 kts 175°
2026-05-06 13:42 1.18565 143.90928 38871 ft 469 kts 175°
2026-05-06 13:42 1.12043 143.91427 38874 ft 471 kts 175°
2026-05-06 13:43 1.05518 143.91926 38874 ft 471 kts 174°
2026-05-06 13:43 0.98980 143.92426 38873 ft 471 kts 175°
2026-05-06 13:44 0.92446 143.92926 38876 ft 471 kts 175°
2026-05-06 13:44 0.85907 143.93426 38875 ft 473 kts 175°
2026-05-06 13:45 0.79379 143.93925 38869 ft 473 kts 175°
2026-05-06 13:45 0.69522 143.94679 38870 ft 474 kts 175°
2026-05-06 13:46 0.62949 143.95182 38868 ft 473 kts 175°
2026-05-06 13:46 0.56383 143.95684 38871 ft 474 kts 175°
2026-05-06 13:47 0.49797 143.96188 38870 ft 474 kts 175°
2026-05-06 13:47 0.43216 143.96691 38871 ft 474 kts 175°
2026-05-06 13:48 0.36637 143.97194 38870 ft 474 kts 175°
2026-05-06 13:48 0.30054 143.97698 38871 ft 474 kts 175°
2026-05-06 13:49 0.23511 143.98198 38871 ft 474 kts 175°
2026-05-06 13:49 0.16930 143.98701 38868 ft 474 kts 175°
2026-05-06 13:50 0.10364 143.99203 38869 ft 474 kts 175°
2026-05-06 13:50 0.03771 143.99708 38874 ft 474 kts 175°
2026-05-06 13:51 -0.02811 144.00143 38871 ft 474 kts 177°
2026-05-06 13:51 -0.09423 144.00369 38873 ft 476 kts 178°
2026-05-06 13:52 -0.16041 144.00551 38874 ft 476 kts 178°
2026-05-06 13:52 -0.22651 144.00751 38873 ft 476 kts 178°
2026-05-06 13:53 -0.29265 144.00966 38871 ft 476 kts 178°
2026-05-06 13:53 -0.35885 144.01188 38867 ft 477 kts 178°
2026-05-06 13:54 -0.42529 144.01410 38867 ft 478 kts 178°
2026-05-06 13:54 -0.49173 144.01631 38867 ft 478 kts 178°
2026-05-06 13:55 -0.55825 144.01852 38874 ft 478 kts 178°
2026-05-06 13:55 -0.62477 144.02073 38869 ft 478 kts 178°
2026-05-06 13:56 -0.69124 144.02294 38869 ft 478 kts 178°
2026-05-06 13:56 -0.75774 144.02515 38866 ft 477 kts 178°
2026-05-06 13:57 -0.82416 144.02736 38866 ft 477 kts 178°
2026-05-06 13:57 -0.89053 144.02957 38868 ft 477 kts 178°
2026-05-06 13:58 -0.95651 144.03176 38865 ft 478 kts 178°
2026-05-06 13:58 -1.02303 144.03397 38864 ft 478 kts 178°
2026-05-06 13:59 -1.08962 144.03619 38865 ft 478 kts 178°
2026-05-06 13:59 -1.15616 144.03840 38875 ft 478 kts 178°
2026-05-06 14:00 -1.22272 144.04061 38864 ft 478 kts 178°
2026-05-06 14:00 -1.28935 144.04283 38868 ft 480 kts 177°
2026-05-06 14:01 -1.35621 144.04505 38869 ft 481 kts 177°
2026-05-06 14:01 -1.42314 144.04728 38874 ft 481 kts 177°
2026-05-06 14:02 -1.49001 144.04950 38868 ft 481 kts 177°
2026-05-06 14:02 -1.55690 144.05173 38870 ft 481 kts 176°
2026-05-06 14:03 -1.62386 144.05395 38868 ft 482 kts 176°
2026-05-06 14:03 -1.69094 144.05619 38865 ft 482 kts 176°
2026-05-06 14:04 -1.75802 144.05842 38871 ft 482 kts 176°
2026-05-06 14:04 -1.82517 144.06065 38864 ft 483 kts 176°
2026-05-06 14:05 -1.89229 144.06289 38879 ft 482 kts 176°
2026-05-06 14:05 -1.95938 144.06512 38868 ft 482 kts 176°
2026-05-06 14:06 -2.02598 144.06733 38873 ft 482 kts 176°
2026-05-06 14:06 -2.09306 144.06957 38869 ft 482 kts 176°
2026-05-06 14:07 -2.16015 144.07180 38869 ft 482 kts 176°
2026-05-06 14:07 -2.22715 144.07403 38865 ft 481 kts 176°
2026-05-06 14:08 -2.29402 144.07626 38872 ft 481 kts 176°
2026-05-06 14:08 -2.36105 144.07849 38871 ft 481 kts 176°
2026-05-06 14:09 -2.42793 144.08072 38878 ft 481 kts 176°
2026-05-06 14:09 -2.49491 144.08295 38870 ft 481 kts 177°
2026-05-06 14:10 -2.56174 144.08517 38865 ft 480 kts 177°
2026-05-06 14:10 -2.62812 144.08738 38863 ft 480 kts 177°
2026-05-06 14:11 -2.69485 144.08961 38871 ft 480 kts 177°
2026-05-06 14:11 -2.76171 144.09183 38870 ft 480 kts 177°
2026-05-06 14:12 -2.82856 144.09406 38862 ft 480 kts 177°
2026-05-06 14:12 -2.89535 144.09629 38874 ft 480 kts 177°
2026-05-06 14:13 -2.96217 144.09852 38869 ft 480 kts 177°
2026-05-06 14:13 -3.02897 144.10074 38866 ft 480 kts 177°
2026-05-06 14:14 -3.08445 144.10259 38867 ft 480 kts 177°
2026-05-06 14:14 -3.15117 144.10482 38867 ft 479 kts 177°
2026-05-06 14:15 -3.21769 144.10703 38874 ft 479 kts 177°
2026-05-06 14:15 -3.28435 144.10926 38872 ft 479 kts 177°
2026-05-06 14:16 -3.35095 144.11148 38871 ft 479 kts 177°
2026-05-06 14:16 -3.41751 144.11370 38873 ft 479 kts 177°
2026-05-06 14:17 -3.48411 144.11592 38872 ft 478 kts 177°
2026-05-06 14:17 -3.55063 144.11814 38870 ft 478 kts 177°
2026-05-06 14:18 -3.61710 144.12036 38876 ft 478 kts 177°
2026-05-06 14:18 -3.68369 144.12258 38874 ft 478 kts 177°
2026-05-06 14:19 -3.75019 144.12480 38875 ft 478 kts 178°
2026-05-06 14:19 -3.81664 144.12702 38879 ft 478 kts 178°
2026-05-06 14:20 -3.88313 144.12924 38877 ft 478 kts 178°
2026-05-06 14:20 -3.94901 144.13144 38874 ft 478 kts 178°
2026-05-06 14:21 -4.01550 144.13366 38875 ft 478 kts 178°
2026-05-06 14:21 -4.08191 144.13588 38877 ft 479 kts 178°
2026-05-06 14:22 -4.14863 144.13811 38876 ft 479 kts 178°
2026-05-06 14:22 -4.21527 144.14034 38875 ft 479 kts 178°
2026-05-06 14:23 -4.28189 144.14256 38877 ft 479 kts 178°
2026-05-06 14:23 -4.34860 144.14479 38874 ft 480 kts 178°
2026-05-06 14:24 -4.41548 144.14703 38877 ft 482 kts 178°
2026-05-06 14:24 -4.48269 144.14928 38881 ft 483 kts 178°
2026-05-06 14:25 -4.54985 144.15152 38879 ft 483 kts 178°
2026-05-06 14:25 -4.61708 144.15377 38885 ft 483 kts 178°
2026-05-06 14:26 -4.68423 144.15602 38890 ft 482 kts 178°
2026-05-06 14:26 -4.75091 144.15825 38903 ft 481 kts 178°
2026-05-06 14:27 -4.81774 144.16049 38903 ft 481 kts 178°
2026-05-06 14:27 -4.88471 144.16273 38921 ft 481 kts 178°
2026-05-06 14:28 -4.95155 144.16497 38947 ft 481 kts 178°
2026-05-06 14:28 -5.01833 144.16720 38944 ft 480 kts 178°
2026-05-06 14:29 -5.08506 144.16944 38964 ft 480 kts 178°
2026-05-06 14:29 -5.15176 144.17167 38963 ft 480 kts 178°
2026-05-06 14:30 -5.21851 144.17391 38977 ft 479 kts 178°
2026-05-06 14:30 -5.28499 144.17614 38977 ft 479 kts 178°
2026-05-06 14:31 -5.35121 144.17836 38995 ft 479 kts 178°
2026-05-06 14:31 -5.41782 144.18060 38995 ft 479 kts 178°
2026-05-06 14:32 -5.48439 144.18283 39013 ft 479 kts 178°
2026-05-06 14:32 -5.55101 144.18506 39011 ft 479 kts 178°
2026-05-06 14:33 -5.61760 144.18730 39028 ft 479 kts 178°
2026-05-06 14:33 -5.68409 144.18953 39046 ft 479 kts 178°
2026-05-06 14:34 -5.75068 144.19177 39043 ft 479 kts 178°
2026-05-06 14:34 -5.81729 144.19400 39050 ft 479 kts 178°
2026-05-06 14:35 -5.88386 144.19624 39051 ft 479 kts 178°
2026-05-06 14:35 -5.95042 144.19848 39050 ft 479 kts 178°
2026-05-06 14:36 -6.01698 144.20071 39046 ft 479 kts 178°
2026-05-06 14:36 -6.08360 144.20295 39049 ft 479 kts 178°
2026-05-06 14:37 -6.15020 144.20519 39048 ft 479 kts 178°
2026-05-06 14:37 -6.21673 144.20743 39039 ft 478 kts 178°
2026-05-06 14:38 -6.28263 144.20965 39039 ft 476 kts 178°
2026-05-06 14:38 -6.34877 144.21187 39027 ft 475 kts 178°
2026-05-06 14:39 -6.41485 144.21410 39027 ft 475 kts 178°
2026-05-06 14:39 -6.48099 144.21632 39012 ft 475 kts 178°
2026-05-06 14:40 -6.54722 144.21855 39003 ft 477 kts 178°
2026-05-06 14:40 -6.61365 144.22079 39000 ft 478 kts 178°
2026-05-06 14:41 -6.68016 144.22303 38983 ft 478 kts 178°
2026-05-06 14:41 -6.74655 144.22527 38983 ft 478 kts 178°
2026-05-06 14:42 -6.81304 144.22751 38965 ft 478 kts 179°
2026-05-06 14:42 -6.87986 144.22976 38963 ft 482 kts 178°
2026-05-06 14:43 -6.94699 144.23202 38950 ft 483 kts 178°
2026-05-06 14:43 -7.01418 144.23429 38948 ft 483 kts 179°
2026-05-06 14:44 -7.08140 144.23656 38933 ft 483 kts 179°
2026-05-06 14:45 -7.18159 144.23995 38924 ft 482 kts 179°
2026-05-06 14:45 -7.24868 144.24221 38921 ft 482 kts 179°
2026-05-06 14:46 -7.31569 144.24448 38914 ft 482 kts 179°
2026-05-06 14:46 -7.38268 144.24674 38917 ft 482 kts 179°
2026-05-06 14:47 -7.44973 144.25197 38908 ft 484 kts 173°
2026-05-06 14:47 -7.51639 144.26150 38907 ft 484 kts 172°
2026-05-06 14:48 -7.58292 144.27184 38906 ft 484 kts 172°
2026-05-06 14:48 -7.64949 144.28225 38902 ft 484 kts 172°
2026-05-06 14:49 -7.71605 144.29258 38901 ft 484 kts 172°
2026-05-06 14:49 -7.78213 144.30277 38901 ft 483 kts 172°
2026-05-06 14:50 -7.84863 144.31302 38908 ft 483 kts 172°
2026-05-06 14:50 -7.91508 144.32327 38906 ft 483 kts 172°
2026-05-06 14:51 -7.98154 144.33352 38902 ft 483 kts 172°
2026-05-06 14:51 -8.04797 144.34377 38906 ft 483 kts 172°
2026-05-06 14:52 -8.11429 144.35402 38906 ft 482 kts 172°
2026-05-06 14:52 -8.18055 144.36425 38905 ft 481 kts 172°
2026-05-06 14:53 -8.24677 144.37448 38903 ft 481 kts 172°
2026-05-06 14:53 -8.31297 144.38471 38902 ft 481 kts 172°
2026-05-06 14:54 -8.37922 144.39495 38905 ft 481 kts 173°
2026-05-06 14:54 -8.44548 144.40520 38909 ft 481 kts 172°
2026-05-06 14:55 -8.51168 144.41544 38908 ft 481 kts 172°
2026-05-06 14:55 -8.57790 144.42569 38907 ft 481 kts 173°
2026-05-06 14:56 -8.64410 144.43594 38909 ft 481 kts 173°
2026-05-06 14:56 -8.71029 144.44619 38908 ft 481 kts 173°
2026-05-06 14:57 -8.77639 144.45643 38910 ft 480 kts 173°
2026-05-06 14:57 -8.84206 144.46661 38908 ft 481 kts 173°
2026-05-06 14:58 -8.90822 144.47687 38908 ft 481 kts 173°
2026-05-06 14:58 -8.97429 144.48711 38909 ft 480 kts 173°